EN

Hourly Weather Ovrazhnyy

Today, 21 April, Wednesday

Time Temperature Precipitation Wind Pressure Humidity
00:00 +12°C° 0 mm 3 mps 721 mmHg 66%
01:00 +11°C° 0.1 mm 3 mps 722 mmHg 69%
02:00 +12°C° 0.1 mm 2 mps 722 mmHg 72%
03:00 +10°C° 0 mm 3 mps 722 mmHg 75%
04:00 +10°C° 0.5 mm 3 mps 723 mmHg 78%
05:00 +9°C° 0.5 mm 2 mps 724 mmHg 82%
06:00 +9°C° 0.5 mm 2 mps 724 mmHg 85%
07:00 +9°C° 0.9 mm 2 mps 725 mmHg 86%
08:00 +9°C° 0.9 mm 2 mps 725 mmHg 86%
09:00 +9°C° 0 mm 3 mps 725 mmHg 86%
10:00 +9°C° 0.2 mm 3 mps 726 mmHg 85%
11:00 +9°C° 0.2 mm 3 mps 726 mmHg 84%
12:00 +10°C° 0.2 mm 3 mps 726 mmHg 83%
13:00 +10°C° 0.1 mm 2 mps 726 mmHg 83%
14:00 +10°C° 0.1 mm 2 mps 726 mmHg 84%
15:00 +11°C° 0.1 mm 1 mps 726 mmHg 84%
16:00 +10°C° 0 mm 1 mps 727 mmHg 86%
17:00 +10°C° 0 mm 1 mps 727 mmHg 87%
18:00 +10°C° 0 mm 1 mps 727 mmHg 89%
19:00 +10°C° 0.1 mm 1 mps 727 mmHg 89%
20:00 +10°C° 0.1 mm 1 mps 727 mmHg 89%
21:00 +10°C° 0.1 mm 1 mps 728 mmHg 90%
22:00 +10°C° 0 mm 1 mps 727 mmHg 88%
23:00 +10°C° 0 mm 1 mps 727 mmHg 87%

Tomorrow, 22 April, Thursday

Time Temperature Precipitation Wind Pressure Humidity
00:00 +10°C° 0 mm 1 mps 727 mmHg 86%
01:00 +10°C° 0 mm 1 mps 727 mmHg 85%
02:00 +10°C° 0 mm 1 mps 727 mmHg 84%
03:00 +9°C° 0 mm 0 mps 727 mmHg 84%
04:00 +10°C° 0.1 mm 1 mps 727 mmHg 85%
05:00 +10°C° 0.1 mm 1 mps 727 mmHg 86%
06:00 +10°C° 0.1 mm 1 mps 727 mmHg 87%
07:00 +9°C° 0.1 mm 2 mps 728 mmHg 88%
08:00 +9°C° 0.1 mm 2 mps 728 mmHg 89%
09:00 +9°C° 0.1 mm 2 mps 728 mmHg 90%
10:00 +10°C° 0.1 mm 2 mps 728 mmHg 88%
11:00 +10°C° 0.1 mm 3 mps 728 mmHg 86%
12:00 +11°C° 0.1 mm 3 mps 728 mmHg 83%
13:00 +11°C° 0 mm 3 mps 728 mmHg 81%
14:00 +11°C° 0 mm 4 mps 728 mmHg 80%
15:00 +12°C° 0 mm 4 mps 728 mmHg 78%
16:00 +11°C° 0.1 mm 3 mps 728 mmHg 81%
17:00 +11°C° 0.1 mm 3 mps 728 mmHg 84%
18:00 +10°C° 0.1 mm 3 mps 728 mmHg 86%
19:00 +10°C° 0.8 mm 2 mps 728 mmHg 89%
20:00 +10°C° 0.8 mm 1 mps 728 mmHg 92%
21:00 +10°C° 0.8 mm 1 mps 728 mmHg 95%
22:00 +10°C° 1.2 mm 1 mps 728 mmHg 96%
23:00 +10°C° 1.2 mm 1 mps 728 mmHg 96%

Day after tomorrow, 23 April, Friday

Time Temperature Precipitation Wind Pressure Humidity
00:00 +9°C° 1.2 mm 0 mps 728 mmHg 97%
01:00 +9°C° 0.2 mm 0 mps 728 mmHg 97%
02:00 +9°C° 0.2 mm 0 mps 728 mmHg 97%
03:00 +9°C° 0.2 mm 0 mps 728 mmHg 97%
04:00 +10°C° 0.1 mm 1 mps 728 mmHg 96%
05:00 +10°C° 0.1 mm 1 mps 728 mmHg 96%
06:00 +10°C° 0.1 mm 1 mps 728 mmHg 96%
07:00 +10°C° 0.1 mm 1 mps 728 mmHg 90%
08:00 +11°C° 0.1 mm 1 mps 729 mmHg 85%
09:00 +12°C° 0.1 mm 1 mps 729 mmHg 80%
10:00 +13°C° 0.1 mm 2 mps 728 mmHg 73%
11:00 +15°C° 0.1 mm 2 mps 728 mmHg 65%
12:00 +16°C° 0.1 mm 2 mps 728 mmHg 58%
13:00 +16°C° 0 mm 2 mps 728 mmHg 54%
14:00 +17°C° 0 mm 3 mps 728 mmHg 50%
15:00 +18°C° 0 mm 3 mps 728 mmHg 46%
16:00 +17°C° 0 mm 2 mps 727 mmHg 51%
17:00 +16°C° 0 mm 2 mps 727 mmHg 56%
18:00 +16°C° 0 mm 2 mps 727 mmHg 62%
19:00 +14°C° 0 mm 1 mps 727 mmHg 64%
20:00 +13°C° 0 mm 1 mps 727 mmHg 66%
21:00 +11°C° 0 mm 1 mps 726 mmHg 68%
22:00 +11°C° 0 mm 1 mps 726 mmHg 69%
23:00 +11°C° 0 mm 1 mps 725 mmHg 71%

24 April, Saturday

Time Temperature Precipitation Wind Pressure Humidity
00:00 +11°C° 0 mm 1 mps 725 mmHg 73%
01:00 +11°C° 0 mm 1 mps 725 mmHg 74%
02:00 +10°C° 0 mm 1 mps 725 mmHg 76%
03:00 +10°C° 0 mm 1 mps 725 mmHg 77%
04:00 +10°C° 0 mm 1 mps 725 mmHg 79%
05:00 +11°C° 0 mm 1 mps 725 mmHg 81%
06:00 +11°C° 0 mm 1 mps 725 mmHg 83%
07:00 +12°C° 0 mm 2 mps 725 mmHg 77%
08:00 +12°C° 0 mm 3 mps 725 mmHg 72%
09:00 +13°C° 0 mm 3 mps 726 mmHg 66%
10:00 +16°C° 0 mm 3 mps 726 mmHg 60%
11:00 +17°C° 0 mm 3 mps 726 mmHg 54%
12:00 +18°C° 0 mm 3 mps 726 mmHg 49%
13:00 +18°C° 0 mm 3 mps 725 mmHg 48%
14:00 +18°C° 0 mm 4 mps 725 mmHg 48%
15:00 +19°C° 0 mm 4 mps 725 mmHg 47%
16:00 +18°C° 0 mm 4 mps 725 mmHg 54%
17:00 +16°C° 0 mm 3 mps 726 mmHg 61%
18:00 +14°C° 0 mm 3 mps 726 mmHg 68%
19:00 +15°C° 0.1 mm 2 mps 726 mmHg 70%
20:00 +14°C° 0.1 mm 2 mps 726 mmHg 73%
21:00 +13°C° 0.1 mm 1 mps 726 mmHg 76%
22:00 +13°C° 0 mm 1 mps 726 mmHg 77%
23:00 +13°C° 0 mm 2 mps 726 mmHg 77%

25 April, Sunday

Time Temperature Precipitation Wind Pressure Humidity
00:00 +12°C° 0 mm 2 mps 726 mmHg 77%
01:00 +12°C° 0 mm 2 mps 726 mmHg 80%
02:00 +10°C° 0 mm 2 mps 726 mmHg 83%
03:00 +10°C° 0 mm 2 mps 726 mmHg 86%
04:00 +10°C° 0 mm 2 mps 727 mmHg 86%
05:00 +9°C° 0 mm 2 mps 727 mmHg 86%
06:00 +9°C° 0 mm 2 mps 727 mmHg 86%
07:00 +9°C° 0 mm 2 mps 727 mmHg 82%
08:00 +9°C° 0 mm 2 mps 727 mmHg 78%
09:00 +8°C° 0 mm 2 mps 726 mmHg 74%
10:00 +8°C° 0.6 mm 2 mps 726 mmHg 77%
11:00 +7°C° 0.6 mm 3 mps 726 mmHg 80%
12:00 +7°C° 0.6 mm 3 mps 726 mmHg 83%
13:00 +7°C° 1.4 mm 2 mps 726 mmHg 86%
14:00 +6°C° 1.4 mm 2 mps 726 mmHg 89%
15:00 +6°C° 1.4 mm 2 mps 726 mmHg 92%
16:00 +6°C° 0.7 mm 2 mps 725 mmHg 93%
17:00 +6°C° 0.7 mm 2 mps 725 mmHg 94%
18:00 +6°C° 0.7 mm 2 mps 725 mmHg 94%
19:00 +6°C° 0.4 mm 2 mps 725 mmHg 95%
20:00 +5°C° 0.4 mm 3 mps 725 mmHg 95%
21:00 +5°C° 0.4 mm 3 mps 725 mmHg 96%
22:00 +4°C° 1.1 mm 3 mps 725 mmHg 96%
23:00 +4°C° 1.1 mm 4 mps 725 mmHg 96%

26 April, Monday

Time Temperature Precipitation Wind Pressure Humidity
00:00 +4°C° 1.1 mm 4 mps 725 mmHg 96%
01:00 +4°C° 0.5 mm 4 mps 725 mmHg 96%
02:00 +4°C° 0.5 mm 3 mps 725 mmHg 96%
03:00 +3°C° 0.5 mm 3 mps 725 mmHg 95%
04:00 +4°C° 0.9 mm 2 mps 725 mmHg 95%
05:00 +4°C° 0.9 mm 2 mps 725 mmHg 95%
06:00 +4°C° 0.9 mm 2 mps 725 mmHg 95%
07:00 +4°C° 0.7 mm 2 mps 725 mmHg 95%
08:00 +4°C° 0.7 mm 2 mps 725 mmHg 95%
09:00 +4°C° 0.7 mm 2 mps 726 mmHg 96%
10:00 +4°C° 0.7 mm 2 mps 726 mmHg 95%
11:00 +4°C° 0.7 mm 2 mps 726 mmHg 94%
12:00 +4°C° 0.7 mm 2 mps 726 mmHg 94%
13:00 +4°C° 0.1 mm 3 mps 726 mmHg 90%
14:00 +5°C° 0.1 mm 3 mps 726 mmHg 87%
15:00 +5°C° 0.1 mm 3 mps 726 mmHg 84%
16:00 +5°C° 0 mm 3 mps 726 mmHg 82%
17:00 +7°C° 0 mm 3 mps 727 mmHg 81%
18:00 +7°C° 0 mm 2 mps 727 mmHg 79%
19:00 +6°C° 0 mm 2 mps 727 mmHg 81%
20:00 +6°C° 0 mm 2 mps 727 mmHg 83%
21:00 +5°C° 0 mm 2 mps 727 mmHg 84%
22:00 +5°C° 0 mm 2 mps 727 mmHg 85%
23:00 +4°C° 0 mm 2 mps 727 mmHg 85%
Show more

We Need Your Consent

Meteoprog and our Service Providers may store and access personal data such as cookies, device identifiers or other similar technologies on your device and process such data to personalise content and ads, as well as provide social media features and to analyse the traffic.

  • Store and/or access information on your device

    Cookies, device identifiers or other information can be stored or accessed on your device for the purposes indicated above.

  • Personalised ads and content, ad and content measurement, audience insights, and products development

    Ads and content can be personalised based on a profile. More data can be added to better personalise ads and content. Ad and content performance can be measured. Insights about the audience who saw the ads and content can be derived. Such data can be used to develop or improve user’s experience, systems and software.

By clicking ‘I Agree’ you will allow the use of indicated cookies, device identifiers, web beacons or other similar technologies. Your settings can be changed in the browser on your device.

For certain purposes, legitimate interests may be relied on, rather than consent. You can read more about this in our Privacy and Cookie Policy.